This demonstration page uses our WeatherBlox Daily Observations layout. Learn more.

41.86663, -103.66717

Hourly Observations for December 28, 2019

Temp ( °F °C ) Dew Point ( °F °C ) Humidity (%) Winds ( mph kmh ) Pressure ( in mb ) Visibility ( mi km ) Precip ( " mm )
12:06 am 00:06 Cloudy with Light Snow 32 0 31 -0.6 96 96 ESE 5 7 29.85 1011 1.75 2.816345 0.001 0.001
12:19 am 00:19 Cloudy with Light Snow 32 0 32 0 100 100 Calm 29.84 1010 2.5 4.02335 0.01 0.254
12:37 am 00:37 Cloudy with Light Snow 32 0 31 -0.6 96 96 N 3 6 29.83 1010 5 8.0467 0.01 0.254
12:44 am 00:44 Cloudy with Mist and Fog 32 0 31 -0.6 96 96 N 3 6 29.83 1010 6 9.65604 0.01 0.254
12:53 am 00:53 Cloudy 32 0 31 -0.6 96 96 NE 3 6 29.78 1008 7 11.26538 0.01 0.254
1:07 am 01:07 Cloudy 32 0 31 -0.6 96 96 Calm 29.85 1011 9 14.48406 0 0
1:15 am 01:15 Cloudy 32 0 30 -1 93 93 E 3 6 29.85 1011 9 14.48406 0 0
1:53 am 01:53 Cloudy with Light Wintry Mix 32 0 31 -0.6 96 96 N 3 6 29.78 1008 10 16.0934 0.001 0.001
2:53 am 02:53 Cloudy with Light Wintry Mix 32 0 31 -0.6 96 96 NNW 5 7 29.77 1008 9 14.48406 0.001 0.001
3:41 am 03:41 Cloudy 32 0 31 -0.6 96 96 NW 7 11 29.81 1009 9 14.48406 0.001 0.001
3:53 am 03:53 Cloudy 32 0 31 -0.6 96 96 NW 7 11 29.75 1007 9 14.48406 0.001 0.001
4:17 am 04:17 Cloudy 32 0 31 -0.6 96 96 NNW 6 9 29.82 1010 10 16.0934 0 0
4:53 am 04:53 Cloudy 32 0 31 -0.6 96 96 NNW 8 13 29.78 1008 9 14.48406 0 0
5:26 am 05:26 Cloudy with Light Snow 30 -1 28 -2 93 93 NNW 9 15 29.87 1011 3 4.82802 0 0
5:36 am 05:36 Cloudy with Light Snow 31 -0.6 29 -1.7 92 92 NNW 9 15 29.86 1011 2 3.21868 0.03 0.762
5:44 am 05:44 Cloudy with Light Snow 31 -0.6 30 -1.1 96 96 NNW 8 13 29.86 1011 1.5 2.41401 0.04 1.016
5:53 am 05:53 Cloudy with Light Snow 31 -0.6 29 -1.7 92 92 NNW 13 20 29.79 1009 1 1.60934 0.04 1.016
6:04 am 06:04 Cloudy with Light Snow 30 -1.1 29 -1.7 96 96 NNW 14 22 29.88 1012 1.5 2.41401 0.01 0.254
6:15 am 06:15 Cloudy with Light Snow 30 -1.1 29 -1.7 96 96 NW 9 15 29.88 1012 1.5 2.41401 0.02 0.508
6:48 am 06:48 Cloudy with Light Snow 30 -1 28 -2 93 93 NW 9 15 29.88 1012 2.5 4.02335 0 0
6:53 am 06:53 Cloudy with Light Snow 30 -1.1 28 -2.2 92 92 NW 10 17 29.8 1009 3 4.82802 0.03 0.762
7:26 am 07:26 Cloudy with Light Snow 30 -1 28 -2 93 93 NW 9 15 29.88 1012 2.5 4.02335 0 0
7:36 am 07:36 Cloudy with Light Snow 30 -1.1 28 -2.2 92 92 NW 12 19 29.88 1012 1.5 2.41401 0.01 0.254
7:42 am 07:42 Cloudy with Light Snow 30 -1.1 28 -2.2 92 92 NW 13 20 29.88 1012 3 4.82802 0.01 0.254
7:53 am 07:53 Cloudy with Light Snow 30 -1.1 27 -2.8 88 88 NW 10 17 29.82 1010 2.5 4.02335 0.01 0.254
8:03 am 08:03 Cloudy with Light Snow 29 -1.7 27 -2.8 92 92 NW 14 22 29.9 1012 1 1.60934 0.001 0.001
8:07 am 08:07 Cloudy with Light Snow 29 -1.7 27 -2.8 92 92 NW 14 22 29.91 1013 0.75 1.207005 0.01 0.254
8:20 am 08:20 Cloudy with Light Snow 29 -1.7 26 -3.3 89 89 NW 16 26 29.91 1013 1.5 2.41401 0.01 0.254
8:26 am 08:26 Cloudy with Light Snow 29 -1.7 26 -3.3 89 89 NW 12 19 29.92 1013 3 4.82802 0.01 0.254
8:34 am 08:34 Cloudy with Light Snow 28 -2 27 -3 93 93 NW 12 19 29.92 1013 2.5 4.02335 0 0
8:41 am 08:41 Cloudy with Light Snow 29 -1.7 26 -3.3 89 89 NW 12 19 29.93 1013 3 4.82802 0.02 0.508
8:53 am 08:53 Cloudy with Light Snow 30 -1.1 26 -3.3 85 85 NNW 13 20 29.86 1011 7 11.26538 0.02 0.508
9:31 am 09:31 Cloudy with Light Snow 29 -1.7 23 -5 78 78 N 17 28 29.96 1014 6 9.65604 0.001 0.001
9:53 am 09:53 Cloudy with Light Snow 29 -1.7 23 -5 78 78 NNW 17 28 29.89 1012 9 14.48406 0.001 0.001
10:53 am 10:53 Windy with Snow Likely 29 -1.7 23 -5 78 78 N 23 37 29.88 1012 5 8.0467 0.001 0.001
11:05 am 11:05 Cloudy with Light Snow 29 -1.7 23 -5 78 78 N 18 30 29.96 1014 4 6.43736 0.001 0.001
11:15 am 11:15 Cloudy with Light Snow 29 -1.7 24 -4.4 82 82 NNW 16 26 29.96 1014 1.75 2.816345 0.001 0.001
11:41 am 11:41 Cloudy with Light Snow 28 -2.2 24 -4.4 85 85 NNW 16 26 29.97 1015 0.75 1.207005 0.001 0.001
11:53 am 11:53 Mostly Cloudy with Scattered Snow Showers 28 -2.2 24 -4.4 85 85 NNW 17 28 29.89 1012 0.75 1.207005 0.01 0.254
12:53 pm 12:53 Mostly Cloudy with Snow 28 -2.2 25 -3.9 88 88 NNW 14 22 29.88 1012 0.5 0.80467 0.01 0.254
1:17 pm 13:17 Cloudy with Light Snow 28 -2.2 25 -3.9 88 88 NNW 10 17 29.96 1014 0.75 1.207005 0.01 0.254
1:25 pm 13:25 Cloudy with Light Snow 28 -2.2 25 -3.9 88 88 NNW 13 20 29.96 1014 1.25 2.011675 0.02 0.508
1:53 pm 13:53 Cloudy with Light Snow 28 -2.2 25 -3.9 88 88 NNW 14 22 29.88 1012 1 1.60934 0.02 0.508
2:53 pm 14:53 Windy with Snow Likely 27 -2.8 23 -5 85 85 NW 20 31 29.89 1012 2.5 4.02335 0.01 0.254
2:58 pm 14:58 Windy with Snow Likely 27 -3 23 -5 86 86 NNW 22 35 29.98 1015 3 4.82802 0 0
3:08 pm 15:08 Windy with Snow Likely 27 -3 23 -5 86 86 NNW 20 31 29.99 1016 2.5 4.02335 0 0
3:31 pm 15:31 Windy with Snow Likely 26 -3.3 22 -5.6 84 84 NNW 23 37 29.99 1016 1.75 2.816345 0.001 0.001
3:42 pm 15:42 Windy with Snow Likely 26 -3.3 22 -5.6 84 84 NW 21 33 29.99 1016 2 3.21868 0.001 0.001
3:53 pm 15:53 Cloudy with Light Snow 26 -3.3 21 -6.1 81 81 NW 17 28 29.91 1013 3 4.82802 0.001 0.001
4:23 pm 16:23 Windy with Snow Likely 26 -3.3 21 -6.1 81 81 NW 20 31 29.99 1016 2 3.21868 0.001 0.001
4:36 pm 16:36 Cloudy with Light Snow 25 -3.9 21 -6.1 85 85 NW 18 30 30.01 1016 1.75 2.816345 0.001 0.001
4:43 pm 16:43 Windy with Snow Likely 25 -3.9 21 -6.1 85 85 NW 21 33 30.01 1016 3 4.82802 0.001 0.001
4:53 pm 16:53 Windy with Snow Likely 25 -3.9 21 -6.1 85 85 NW 21 33 29.91 1013 6 9.65604 0.001 0.001
5:53 pm 17:53 Cloudy 25 -3.9 21 -6.1 85 85 NW 18 30 29.93 1013 10 16.0934 0.001 0.001
6:53 pm 18:53 Windy with Snow Likely 25 -3.9 21 -6.1 85 85 NW 20 31 29.92 1013 3 4.82802 0.001 0.001
7:53 pm 19:53 Cloudy with Light Snow 25 -3.9 21 -6.1 85 85 undefined N/A 29.92 1013 6 9.65604 0.001 0.001
8:53 pm 20:53 Windy with Snow Likely 25 -3.9 20 -6.7 81 81 NW 23 37 29.92 1013 7 11.26538 0.001 0.001
9:53 pm 21:53 Cloudy 25 -3.9 19 -7.2 78 78 NW 25 41 29.92 1013 10 16.0934 0.001 0.001
10:53 pm 22:53 Cloudy 25 -3.9 19 -7.2 78 78 NW 21 33 29.91 1013 10 16.0934 0 0
11:53 pm 23:53 Cloudy 25 -3.9 19 -7.2 78 78 NW 23 37 29.9 1012 10 16.0934 0 0

Powered by AerisWeather